ROMMA est une association bénévole à but non lucratif. Votre soutien est indispensable : ADHERER à ROMMA ou FAIRE un DON

Chambon - (38, Isère)

Oisans (2460 m)   Longitude: 06° 10' 42" E   Latitude: 45° 01' 32" N Station partenaire n°803
 

Détail journalier du     <<     >>

Température Humidité Vent Dir Rafale Dir. rafale Neige 1 Neige 2
Heure (°C) (%) (km/h) (km/h) (cm) (cm)
01:00 4.62914NNE25NNE03
02:00 4.5317NNE24NNE03
03:00 5.6315NNE25ESE03
04:00 5.5297ESE24ESE03
05:00 5.2258ESE24ESE03
06:00 5.22212SSO25SO03
07:00 4.22718SSO26SO03
08:00 5.11120SSO28SO03
09:00 5.11420SSO37SO03
10:00 5.12813SO38SO03
11:00 5.76414SO29SO03
12:00 3.07721SO36SO03
13:00 3.69921SO35SO03
14:00 3.810020SO36SO04
15:00 3.99420SO34SO03
16:00 3.99421SO32SO03
17:00 3.09521OSO32OSO03
18:00 3.38618SO29SO03
19:00 2.39321OSO29OSO03
20:00 1.69923SO31SO03
21:00 1.79219SO28SO03
22:00 1.69311SO23OSO03
23:00 1.09914SO28OSO03
minuit 0.49523SO40SO03

Graphique du 04-10-2019

 

Serveur OMMA